Location: ???????
(55.3754°N, 39.3545°E)
Time: 21:32:50
(UTC+00:00)

ARIANE 6 FM1 Upper Stage - Pass Details

Date: 14 April 2026
Orbit: 526 x 602 km, 62.0° (Epoch: 16 May)

Event Time Altitude Azimuth Distance (km) Brightness Sun altitude
Rises 21:39:29 0° 302° (WNW) 2,688 6.5 -24.9°
Reaches altitude 10° 21:41:44 10° 308° (NW) 1,788 5.6 -24.8°
Maximum altitude 21:45:40 51° 25° (NNE) 670 3.3 -24.8°
Enters shadow 21:46:19 45° 60° (ENE) 725 3.4 -24.8°
